This is the latest recevied weather packets stored in our database for station/object N5YHM-13. If no packets are shown the sender has not sent any weather packets the latest 1 day(s).
| Time | Temp. | Humidity | Pressure | Rain* | Wind** | Luminosity | Snow |
|---|---|---|---|---|---|---|---|
| 1777987690 | 17.78° C | 96% | 1015.2 hPa | 0 mm | 0 m/s | 8 W/m² | - |
| 1777987388 | 17.78° C | 97% | 1015.1 hPa | 0 mm | 0 m/s | 12 W/m² | - |
| 1777987085 | 17.22° C | 97% | 1015.1 hPa | 0 mm | 0 m/s | 9 W/m² | - |
| 1777986783 | 17.22° C | 98% | 1015.3 hPa | 0 mm | 0 m/s | 8 W/m² | - |
| 1777986480 | 16.67° C | 98% | 1015 hPa | 0 mm | 0 m/s | 8 W/m² | - |
| 1777986185 | 16.67° C | 98% | 1015.2 hPa | 0 mm | 0 m/s | 15 W/m² | - |
| 1777985875 | 16.11° C | 98% | 1015.1 hPa | 0 mm | 0 m/s | 6 W/m² | - |
| 1777985572 | 16.11° C | 98% | 1015 hPa | 0 mm | 0 m/s | 6 W/m² | - |
| 1777985269 | 15.56° C | 98% | 1015.1 hPa | 0 mm | 0 m/s | 7 W/m² | - |
| 1777984965 | 15.56° C | 98% | 1015 hPa | 0 mm | 0 m/s | 7 W/m² | - |
| 1777984661 | 15° C | 99% | 1014.8 hPa | 0 mm | 0 m/s | 6 W/m² | - |
| 1777984358 | 15° C | 99% | 1015.1 hPa | 0 mm | 0 m/s | 5 W/m² | - |
| 1777984054 | 15° C | 99% | 1014.8 hPa | 0 mm | 0 m/s | 5 W/m² | - |
| 1777983752 | 14.44° C | 99% | 1014.6 hPa | 0 mm | 0 m/s | 5 W/m² | - |
| 1777983448 | 14.44° C | 99% | 1014.8 hPa | 0 mm | 0 m/s | 5 W/m² | - |
| 1777983145 | 14.44° C | 99% | 1014.7 hPa | 0 mm | 0 m/s | 4 W/m² | - |
| 1777982841 | 13.89° C | 99% | 1014.8 hPa | 0 mm | 0 m/s | 4 W/m² | - |
| 1777982537 | 13.89° C | 99% | 1014.6 hPa | 0 mm | 0 m/s | 4 W/m² | - |
| 1777982236 | 13.89° C | 99% | 1014.5 hPa | 0 mm | 0 m/s | 3 W/m² | - |
| 1777981934 | 13.33° C | 99% | 1014.5 hPa | 0 mm | 0 m/s | 3 W/m² | - |
| 1777981631 | 13.33° C | 99% | 1014.5 hPa | 0 mm | 0 m/s | 2 W/m² | - |
| 1777981327 | 13.33° C | 99% | 1014.4 hPa | 0 mm | 0 m/s | 2 W/m² | - |
| 1777981024 | 13.33° C | 99% | 1014.4 hPa | 0 mm | 0 m/s | 1 W/m² | - |
| 1777980721 | 13.33° C | 99% | 1014.3 hPa | 0 mm | 0 m/s | 1 W/m² | - |
| 1777980417 | 13.33° C | 99% | 1014.4 hPa | 0 mm | 0 m/s | 1 W/m² | - |
* Rain latest hour (hover to see other rain measurements)
** Current wind speed in m/s (hover to see current wind gust speed)